SVR0301 EGGP-ULLI

Flight info

Callsign SVR0301
Flight time 2h 47m
Altitude 35000
Route BARTN UL975 DESIG L603 BUKUT DCT LAMSO DCT KONOM DCT DOSUR P729 TALSA Z702 AMTOT DCT MOVIS DCT RASEL DCT KEMET DCT PIMOM T652 TALER/K0811F350 T652 OBANA
Aircraft A320/M-SDE3FGHIRWY/LB1

Departure

Time 2026-05-06 11:58
Airport Liverpool John Lennon Airport (EGGP)

Arrival

Time 2026-05-06 14:46
Airport Pulkovo Airport (ULLI)
Time Latitude Longitude Altitude Speed Heading
2026-05-06 11:31 53.33642 -2.84952 88 ft 0 kts 85°
2026-05-06 11:48 53.33642 -2.84977 89 ft 4 kts 99°
2026-05-06 11:48 53.33652 -2.85010 85 ft 4 kts 161°
2026-05-06 11:48 53.33660 -2.85014 90 ft 0 kts 175°
2026-05-06 11:52 53.33659 -2.85014 85 ft 1 kts 176°
2026-05-06 11:53 53.33652 -2.85026 89 ft 4 kts 220°
2026-05-06 11:53 53.33619 -2.85067 87 ft 7 kts 194°
2026-05-06 11:53 53.33576 -2.85063 85 ft 6 kts 174°
2026-05-06 11:53 53.33528 -2.85092 87 ft 11 kts 232°
2026-05-06 11:54 53.33514 -2.85246 84 ft 14 kts 266°
2026-05-06 11:54 53.33510 -2.85396 87 ft 12 kts 267°
2026-05-06 11:54 53.33504 -2.85528 84 ft 11 kts 265°
2026-05-06 11:54 53.33498 -2.85653 88 ft 11 kts 265°
2026-05-06 11:55 53.33491 -2.85775 86 ft 10 kts 265°
2026-05-06 11:55 53.33487 -2.85886 84 ft 9 kts 266°
2026-05-06 11:55 53.33482 -2.85995 84 ft 11 kts 266°
2026-05-06 11:55 53.33475 -2.86147 84 ft 15 kts 265°
2026-05-06 11:56 53.33467 -2.86333 86 ft 18 kts 265°
2026-05-06 11:56 53.33457 -2.86525 81 ft 18 kts 266°
2026-05-06 11:56 53.33421 -2.86712 76 ft 14 kts 217°
2026-05-06 11:56 53.33324 -2.86699 74 ft 16 kts 144°
2026-05-06 11:57 53.33290 -2.86565 76 ft 10 kts 84°
2026-05-06 11:57 53.33291 -2.86542 73 ft 0 kts 84°
2026-05-06 11:57 53.33292 -2.86526 75 ft 13 kts 84°
2026-05-06 11:58 53.33321 -2.85904 72 ft 91 kts 85°
2026-05-06 11:58 53.33387 -2.84489 81 ft 151 kts 85°
2026-05-06 11:58 53.33462 -2.82585 522 ft 168 kts 88°
2026-05-06 11:58 53.33531 -2.80633 1320 ft 170 kts 84°
2026-05-06 11:59 53.33927 -2.78717 1847 ft 185 kts 53°
2026-05-06 11:59 53.35032 -2.77423 2185 ft 209 kts 16°
2026-05-06 11:59 53.36555 -2.77266 2534 ft 233 kts
2026-05-06 11:59 53.38249 -2.77349 3046 ft 251 kts 359°
2026-05-06 12:00 53.40023 -2.77469 3765 ft 260 kts 359°
2026-05-06 12:00 53.41798 -2.77200 3969 ft 255 kts 22°
2026-05-06 12:00 53.43187 -2.75478 4016 ft 251 kts 55°
2026-05-06 12:00 53.43804 -2.72765 4021 ft 252 kts 78°
2026-05-06 12:01 53.44132 -2.69866 4017 ft 254 kts 78°
2026-05-06 12:01 53.44450 -2.66949 3999 ft 254 kts 79°
2026-05-06 12:01 53.44762 -2.64040 4007 ft 254 kts 79°
2026-05-06 12:01 53.45074 -2.61125 4009 ft 254 kts 79°
2026-05-06 12:02 53.45388 -2.58207 4005 ft 254 kts 78°
2026-05-06 12:02 53.45597 -2.56284 4005 ft 253 kts 78°
2026-05-06 12:02 53.45909 -2.53380 4002 ft 252 kts 79°
2026-05-06 12:02 53.46220 -2.50485 4008 ft 252 kts 78°
2026-05-06 12:03 53.46534 -2.47593 4007 ft 252 kts 78°
2026-05-06 12:03 53.46850 -2.44706 4000 ft 252 kts 78°
2026-05-06 12:03 53.47167 -2.41813 4010 ft 254 kts 78°
2026-05-06 12:03 53.47493 -2.38833 4758 ft 259 kts 78°
2026-05-06 12:04 53.47813 -2.35865 5774 ft 259 kts 77°
2026-05-06 12:04 53.48136 -2.32857 6592 ft 265 kts 77°
2026-05-06 12:04 53.48465 -2.29782 7361 ft 271 kts 77°
2026-05-06 12:04 53.48798 -2.26636 8143 ft 276 kts 77°
2026-05-06 12:05 53.49138 -2.23440 8921 ft 281 kts 78°
2026-05-06 12:05 53.49485 -2.20180 9704 ft 286 kts 78°
2026-05-06 12:05 53.49841 -2.16851 10373 ft 295 kts 78°
2026-05-06 12:05 53.50219 -2.13323 10606 ft 318 kts 78°
2026-05-06 12:06 53.50620 -2.09581 10808 ft 341 kts 78°
2026-05-06 12:06 53.51044 -2.05572 11255 ft 353 kts 78°
2026-05-06 12:06 53.51469 -2.01471 11889 ft 360 kts 78°
2026-05-06 12:06 53.51899 -1.97296 12594 ft 364 kts 78°
2026-05-06 12:07 53.52306 -1.93068 13242 ft 370 kts 82°
2026-05-06 12:07 53.52341 -1.88709 13907 ft 376 kts 94°
2026-05-06 12:07 53.51879 -1.84360 14505 ft 381 kts 105°
2026-05-06 12:07 53.51122 -1.80060 15094 ft 385 kts 106°
2026-05-06 12:08 53.50353 -1.75725 15703 ft 388 kts 106°
2026-05-06 12:08 53.49581 -1.71373 16321 ft 391 kts 106°
2026-05-06 12:08 53.48798 -1.66970 16920 ft 394 kts 106°
2026-05-06 12:08 53.48021 -1.62593 17484 ft 398 kts 106°
2026-05-06 12:09 53.47226 -1.58117 18076 ft 402 kts 106°
2026-05-06 12:09 53.46422 -1.53605 18626 ft 405 kts 107°
2026-05-06 12:09 53.45600 -1.49004 19154 ft 408 kts 107°
2026-05-06 12:09 53.44777 -1.44417 19671 ft 411 kts 107°
2026-05-06 12:10 53.43956 -1.39875 20216 ft 414 kts 107°
2026-05-06 12:10 53.43114 -1.35227 20735 ft 417 kts 107°
2026-05-06 12:10 53.42269 -1.30560 21230 ft 420 kts 107°
2026-05-06 12:10 53.41453 -1.25841 21732 ft 423 kts 102°
2026-05-06 12:11 53.41172 -1.20933 22209 ft 426 kts 87°
2026-05-06 12:11 53.41680 -1.16045 22654 ft 428 kts 70°
2026-05-06 12:11 53.42986 -1.11579 23103 ft 429 kts 57°
2026-05-06 12:11 53.44568 -1.07320 23544 ft 431 kts 57°
2026-05-06 12:12 53.46173 -1.03053 23914 ft 434 kts 56°
2026-05-06 12:12 53.47795 -0.98750 24227 ft 438 kts 57°
2026-05-06 12:12 53.49426 -0.94403 24549 ft 441 kts 57°
2026-05-06 12:12 53.51058 -0.90021 24898 ft 444 kts 57°
2026-05-06 12:13 53.52648 -0.85561 25253 ft 446 kts 63°
2026-05-06 12:13 53.53736 -0.80658 25573 ft 449 kts 72°
2026-05-06 12:13 53.54653 -0.75609 25908 ft 452 kts 73°
2026-05-06 12:13 53.55556 -0.70538 26235 ft 454 kts 73°
2026-05-06 12:14 53.56455 -0.65439 26557 ft 456 kts 73°
2026-05-06 12:14 53.57358 -0.60314 26875 ft 458 kts 73°
2026-05-06 12:14 53.58265 -0.55165 27183 ft 460 kts 73°
2026-05-06 12:14 53.59175 -0.49989 27485 ft 462 kts 73°
2026-05-06 12:15 53.60087 -0.44784 27772 ft 465 kts 73°
2026-05-06 12:15 53.61001 -0.39552 28059 ft 467 kts 73°
2026-05-06 12:15 53.61914 -0.34297 28339 ft 469 kts 73°
2026-05-06 12:15 53.62834 -0.29018 28612 ft 471 kts 73°
2026-05-06 12:16 53.63757 -0.23714 28871 ft 473 kts 73°
2026-05-06 12:16 53.64674 -0.18450 29110 ft 475 kts 73°
2026-05-06 12:16 53.65603 -0.13093 29350 ft 476 kts 74°
2026-05-06 12:16 53.66529 -0.07710 29575 ft 478 kts 74°
2026-05-06 12:17 53.67453 -0.02310 29849 ft 478 kts 74°
2026-05-06 12:17 53.68372 0.03092 30148 ft 478 kts 74°
2026-05-06 12:17 53.69287 0.08487 30418 ft 477 kts 74°
2026-05-06 12:17 53.70199 0.13872 30705 ft 477 kts 74°
2026-05-06 12:18 53.71114 0.19260 30971 ft 476 kts 74°
2026-05-06 12:18 53.72014 0.24571 31243 ft 476 kts 74°
2026-05-06 12:18 53.72921 0.29948 31515 ft 475 kts 74°
2026-05-06 12:18 53.73822 0.35308 31814 ft 475 kts 74°
2026-05-06 12:19 53.74724 0.40687 32112 ft 474 kts 75°
2026-05-06 12:19 53.75621 0.46048 32364 ft 474 kts 75°
2026-05-06 12:19 53.76519 0.51422 32626 ft 474 kts 75°
2026-05-06 12:19 53.77410 0.56788 32869 ft 475 kts 75°
2026-05-06 12:20 53.78302 0.62192 33084 ft 476 kts 75°
2026-05-06 12:20 53.79190 0.67594 33355 ft 475 kts 75°
2026-05-06 12:20 53.80061 0.72919 33614 ft 475 kts 75°
2026-05-06 12:20 53.80939 0.78300 33898 ft 474 kts 75°
2026-05-06 12:21 53.81815 0.83673 34147 ft 474 kts 75°
2026-05-06 12:21 53.82691 0.89052 34368 ft 474 kts 75°
2026-05-06 12:21 53.83564 0.94426 34577 ft 474 kts 75°
2026-05-06 12:21 53.84437 0.99810 34803 ft 474 kts 75°
2026-05-06 12:22 53.85307 1.05191 34962 ft 475 kts 75°
2026-05-06 12:22 53.86178 1.10596 35027 ft 474 kts 75°
2026-05-06 12:22 53.87905 1.21385 35027 ft 474 kts 76°
2026-05-06 12:23 53.89614 1.32163 35024 ft 473 kts 76°
2026-05-06 12:23 53.91311 1.42951 35024 ft 473 kts 76°
2026-05-06 12:24 53.93005 1.53775 35019 ft 473 kts 76°
2026-05-06 12:24 53.94687 1.64578 35022 ft 473 kts 76°
2026-05-06 12:25 53.96354 1.75311 35024 ft 473 kts 76°
2026-05-06 12:25 53.98017 1.86131 35026 ft 473 kts 76°
2026-05-06 12:26 53.99671 1.96957 35033 ft 473 kts 76°
2026-05-06 12:26 54.01316 2.07795 35028 ft 473 kts 76°
2026-05-06 12:27 54.02952 2.18677 35023 ft 473 kts 76°
2026-05-06 12:27 54.04566 2.29489 35024 ft 473 kts 76°
2026-05-06 12:28 54.06188 2.40363 35020 ft 473 kts 77°
2026-05-06 12:28 54.07795 2.51242 35021 ft 473 kts 77°
2026-05-06 12:29 54.09386 2.62132 35021 ft 473 kts 77°
2026-05-06 12:29 54.10977 2.73022 35021 ft 473 kts 77°
2026-05-06 12:30 54.12543 2.83825 35027 ft 472 kts 77°
2026-05-06 12:30 54.14104 2.94716 35029 ft 472 kts 77°
2026-05-06 12:31 54.15655 3.05607 35020 ft 472 kts 77°
2026-05-06 12:31 54.17194 3.16498 35020 ft 472 kts 77°
2026-05-06 12:32 54.18719 3.27378 35015 ft 471 kts 77°
2026-05-06 12:32 54.20240 3.38268 35032 ft 471 kts 78°
2026-05-06 12:33 54.21748 3.49164 35020 ft 471 kts 78°
2026-05-06 12:33 54.23242 3.60018 35014 ft 472 kts 78°
2026-05-06 12:34 54.24737 3.70946 35006 ft 472 kts 78°
2026-05-06 12:34 54.26223 3.81900 35001 ft 472 kts 78°
2026-05-06 12:35 54.27699 3.92855 35002 ft 472 kts 78°
2026-05-06 12:35 54.29166 4.03803 35009 ft 472 kts 78°
2026-05-06 12:36 54.30617 4.14760 35000 ft 472 kts 78°
2026-05-06 12:36 54.32046 4.25676 35001 ft 472 kts 79°
2026-05-06 12:37 54.33471 4.36652 34989 ft 472 kts 79°
2026-05-06 12:37 54.34891 4.47631 34990 ft 472 kts 79°
2026-05-06 12:38 54.36313 4.58638 34991 ft 472 kts 79°
2026-05-06 12:38 54.37719 4.69639 34992 ft 472 kts 79°
2026-05-06 12:39 54.39112 4.80652 34988 ft 472 kts 79°
2026-05-06 12:39 54.40489 4.91607 35001 ft 473 kts 79°
2026-05-06 12:40 54.41867 5.02656 34991 ft 473 kts 79°
2026-05-06 12:40 54.43234 5.13736 34987 ft 473 kts 80°
2026-05-06 12:41 54.44594 5.24812 34991 ft 474 kts 80°
2026-05-06 12:41 54.45934 5.35892 34973 ft 474 kts 80°
2026-05-06 12:42 54.47259 5.46913 34985 ft 473 kts 80°
2026-05-06 12:42 54.48597 5.58009 34985 ft 473 kts 80°
2026-05-06 12:43 54.49911 5.69095 34989 ft 473 kts 80°
2026-05-06 12:43 54.51213 5.80208 34990 ft 473 kts 81°
2026-05-06 12:44 54.52503 5.91312 34975 ft 473 kts 81°
2026-05-06 12:44 54.53570 6.00533 34989 ft 472 kts 81°
2026-05-06 12:45 54.54845 6.11611 34991 ft 471 kts 81°
2026-05-06 12:46 54.56737 6.28244 34990 ft 470 kts 81°
2026-05-06 12:46 54.57977 6.39319 34991 ft 470 kts 81°
2026-05-06 12:47 54.59204 6.50332 34973 ft 471 kts 82°
2026-05-06 12:47 54.60436 6.61433 34973 ft 471 kts 82°
2026-05-06 12:48 54.61647 6.72544 34968 ft 471 kts 82°
2026-05-06 12:48 54.62847 6.83647 34969 ft 471 kts 82°
2026-05-06 12:49 54.64035 6.94703 34965 ft 471 kts 82°
2026-05-06 12:49 54.65223 7.05822 34956 ft 471 kts 82°
2026-05-06 12:50 54.66396 7.16943 34954 ft 471 kts 82°
2026-05-06 12:50 54.67553 7.28072 34957 ft 471 kts 82°
2026-05-06 12:51 54.68706 7.39202 34951 ft 471 kts 82°
2026-05-06 12:51 54.69851 7.50340 34954 ft 471 kts 82°
2026-05-06 12:52 54.70987 7.61486 34937 ft 471 kts 82°
2026-05-06 12:52 54.72113 7.72649 34937 ft 471 kts 82°
2026-05-06 12:53 54.73225 7.83822 34939 ft 472 kts 83°
2026-05-06 12:53 54.74325 7.95015 34935 ft 472 kts 83°
2026-05-06 12:54 54.75417 8.06226 34933 ft 472 kts 83°
2026-05-06 12:54 54.76506 8.17446 34912 ft 473 kts 83°
2026-05-06 12:55 54.77589 8.28687 34914 ft 473 kts 83°
2026-05-06 12:55 54.78659 8.39950 34918 ft 473 kts 83°
2026-05-06 12:56 54.79705 8.51134 34914 ft 473 kts 83°
2026-05-06 12:56 54.80747 8.62394 34917 ft 473 kts 83°
2026-05-06 12:57 54.81781 8.73661 34904 ft 473 kts 84°
2026-05-06 12:57 54.82807 8.84924 34914 ft 472 kts 84°
2026-05-06 12:58 54.83821 8.96181 34924 ft 472 kts 84°
2026-05-06 12:58 54.84812 9.07435 34926 ft 472 kts 84°
2026-05-06 12:59 54.86608 9.18411 34926 ft 477 kts 67°
2026-05-06 12:59 54.90244 9.28055 34918 ft 480 kts 49°
2026-05-06 13:00 54.94679 9.36745 34929 ft 480 kts 49°
2026-05-06 13:00 54.99097 9.45483 34915 ft 481 kts 50°
2026-05-06 13:01 55.03490 9.54223 34919 ft 481 kts 50°
2026-05-06 13:01 55.07898 9.63034 34921 ft 481 kts 50°
2026-05-06 13:02 55.12080 9.72130 34921 ft 480 kts 57°
2026-05-06 13:02 55.15857 9.81762 34921 ft 481 kts 56°
2026-05-06 13:03 55.19652 9.91449 34916 ft 482 kts 56°
2026-05-06 13:03 55.23407 10.01107 34904 ft 482 kts 57°
2026-05-06 13:04 55.27179 10.10829 34919 ft 482 kts 57°
2026-05-06 13:04 55.30931 10.20559 34925 ft 482 kts 58°
2026-05-06 13:05 55.34684 10.30317 34930 ft 482 kts 58°
2026-05-06 13:05 55.38428 10.40091 34952 ft 482 kts 57°
2026-05-06 13:06 55.42170 10.49890 34947 ft 482 kts 57°
2026-05-06 13:06 55.45905 10.59718 34945 ft 483 kts 57°
2026-05-06 13:07 55.49639 10.69569 34941 ft 483 kts 57°
2026-05-06 13:07 55.53342 10.79389 34938 ft 483 kts 57°
2026-05-06 13:08 55.57058 10.89283 34936 ft 483 kts 57°
2026-05-06 13:08 55.60766 10.99191 34940 ft 483 kts 57°
2026-05-06 13:09 55.64465 11.09120 34941 ft 483 kts 57°
2026-05-06 13:09 55.68153 11.19066 34941 ft 483 kts 58°
2026-05-06 13:10 55.71838 11.29042 34925 ft 483 kts 58°
2026-05-06 13:10 55.75514 11.39019 34933 ft 482 kts 59°
2026-05-06 13:11 55.79150 11.48938 34948 ft 483 kts 58°
2026-05-06 13:11 55.82812 11.58967 34936 ft 483 kts 58°
2026-05-06 13:12 55.86467 11.69014 34936 ft 484 kts 58°
2026-05-06 13:12 55.90110 11.79096 34935 ft 484 kts 58°
2026-05-06 13:13 55.93757 11.89209 34934 ft 484 kts 58°
2026-05-06 13:13 55.97399 11.99336 34928 ft 484 kts 59°
2026-05-06 13:14 56.01019 12.09461 34954 ft 484 kts 59°
2026-05-06 13:14 56.04604 12.19653 34950 ft 484 kts 60°
2026-05-06 13:15 56.07934 12.30104 34944 ft 483 kts 63°
2026-05-06 13:15 56.11094 12.40728 34949 ft 483 kts 64°
2026-05-06 13:16 56.14269 12.51357 34949 ft 483 kts 63°
2026-05-06 13:16 56.17489 12.61949 34950 ft 484 kts 63°
2026-05-06 13:17 56.20717 12.72526 34961 ft 483 kts 64°
2026-05-06 13:17 56.23919 12.83131 34962 ft 482 kts 64°
2026-05-06 13:18 56.27093 12.93749 34934 ft 482 kts 64°
2026-05-06 13:18 56.30261 13.04372 34934 ft 481 kts 64°
2026-05-06 13:19 56.33424 13.14998 34955 ft 481 kts 64°
2026-05-06 13:19 56.36575 13.25645 34946 ft 481 kts 64°
2026-05-06 13:20 56.39712 13.36312 34944 ft 481 kts 65°
2026-05-06 13:20 56.42841 13.46993 34944 ft 481 kts 65°
2026-05-06 13:21 56.45935 13.57613 34947 ft 481 kts 65°
2026-05-06 13:21 56.49051 13.68319 34947 ft 481 kts 65°
2026-05-06 13:22 56.52161 13.79048 34947 ft 480 kts 65°
2026-05-06 13:22 56.55251 13.89778 34947 ft 480 kts 65°
2026-05-06 13:23 56.58330 14.00524 34945 ft 480 kts 65°
2026-05-06 13:23 56.61405 14.11305 34932 ft 481 kts 66°
2026-05-06 13:24 56.64464 14.22099 34932 ft 481 kts 66°
2026-05-06 13:24 56.67500 14.32858 34936 ft 481 kts 66°
2026-05-06 13:25 56.70545 14.43700 34941 ft 481 kts 66°
2026-05-06 13:25 56.73592 14.54562 34946 ft 481 kts 66°
2026-05-06 13:26 56.76625 14.65449 34949 ft 481 kts 66°
2026-05-06 13:26 56.79649 14.76355 34931 ft 482 kts 66°
2026-05-06 13:27 56.82663 14.87271 34944 ft 481 kts 66°
2026-05-06 13:27 56.85647 14.98134 34958 ft 481 kts 66°
2026-05-06 13:28 56.88633 15.09072 34956 ft 481 kts 66°
2026-05-06 13:28 56.91613 15.20023 34960 ft 480 kts 67°
2026-05-06 13:29 56.94577 15.30985 34962 ft 480 kts 67°
2026-05-06 13:29 56.97530 15.41954 34984 ft 480 kts 67°
2026-05-06 13:30 56.99981 15.51108 34937 ft 482 kts 67°
2026-05-06 13:30 57.02931 15.62164 34940 ft 483 kts 67°
2026-05-06 13:31 57.05883 15.73255 34945 ft 483 kts 67°
2026-05-06 13:31 57.08830 15.84375 34958 ft 484 kts 67°
2026-05-06 13:32 57.11764 15.95533 34959 ft 484 kts 68°
2026-05-06 13:32 57.14687 16.06720 34976 ft 484 kts 68°
2026-05-06 13:33 57.17607 16.17916 34984 ft 485 kts 68°
2026-05-06 13:33 57.20510 16.29115 34960 ft 486 kts 68°
2026-05-06 13:34 57.23330 16.40465 34964 ft 486 kts 70°
2026-05-06 13:34 57.25858 16.52041 34969 ft 485 kts 72°
2026-05-06 13:35 57.28268 16.63620 34977 ft 485 kts 72°
2026-05-06 13:35 57.30741 16.75257 34988 ft 486 kts 72°
2026-05-06 13:36 57.33259 16.86892 34993 ft 486 kts 72°
2026-05-06 13:36 57.35763 16.98547 34969 ft 487 kts 72°
2026-05-06 13:37 57.38236 17.10171 34970 ft 488 kts 72°
2026-05-06 13:37 57.40710 17.21903 34973 ft 489 kts 72°
2026-05-06 13:38 57.43179 17.33665 34975 ft 489 kts 72°
2026-05-06 13:38 57.45635 17.45459 34979 ft 490 kts 72°
2026-05-06 13:39 57.48089 17.57285 34989 ft 490 kts 72°
2026-05-06 13:39 57.50524 17.69125 34989 ft 490 kts 73°
2026-05-06 13:40 57.52952 17.80979 34989 ft 490 kts 72°
2026-05-06 13:40 57.55376 17.92835 34997 ft 490 kts 73°
2026-05-06 13:41 57.57771 18.04644 34996 ft 490 kts 73°
2026-05-06 13:41 57.60161 18.16531 34997 ft 490 kts 73°
2026-05-06 13:42 57.62542 18.28443 34996 ft 490 kts 73°
2026-05-06 13:42 57.64915 18.40368 34978 ft 490 kts 73°
2026-05-06 13:43 57.67281 18.52309 35012 ft 490 kts 73°
2026-05-06 13:43 57.69615 18.64187 34995 ft 491 kts 73°
2026-05-06 13:44 57.71962 18.76211 34995 ft 492 kts 73°
2026-05-06 13:44 57.74302 18.88261 34991 ft 492 kts 73°
2026-05-06 13:45 57.76631 19.00326 34995 ft 493 kts 73°
2026-05-06 13:45 57.80105 19.18471 34967 ft 493 kts 74°
2026-05-06 13:46 57.82413 19.30583 34993 ft 493 kts 74°
2026-05-06 13:46 57.84712 19.42738 35008 ft 494 kts 74°
2026-05-06 13:47 57.87000 19.54922 34994 ft 495 kts 74°
2026-05-06 13:47 57.89263 19.67079 35002 ft 496 kts 74°
2026-05-06 13:48 57.91531 19.79337 34991 ft 497 kts 74°
2026-05-06 13:48 57.93790 19.91620 34973 ft 497 kts 74°
2026-05-06 13:49 57.96044 20.03927 34986 ft 497 kts 74°
2026-05-06 13:49 57.98286 20.16249 35001 ft 497 kts 75°
2026-05-06 13:50 58.00514 20.28610 35019 ft 498 kts 75°
2026-05-06 13:50 58.02719 20.40953 35011 ft 498 kts 75°
2026-05-06 13:51 58.04978 20.53344 35003 ft 499 kts 74°
2026-05-06 13:51 58.07290 20.65740 35011 ft 500 kts 74°
2026-05-06 13:52 58.09575 20.78082 34988 ft 500 kts 74°
2026-05-06 13:52 58.11845 20.90520 35007 ft 500 kts 74°
2026-05-06 13:53 58.14092 21.02971 35012 ft 500 kts 74°
2026-05-06 13:53 58.16327 21.15445 35021 ft 501 kts 74°
2026-05-06 13:54 58.18563 21.27969 35016 ft 502 kts 74°
2026-05-06 13:54 58.20790 21.40514 35011 ft 502 kts 75°
2026-05-06 13:55 58.23000 21.53091 34989 ft 503 kts 74°
2026-05-06 13:55 58.25207 21.65719 34998 ft 504 kts 74°
2026-05-06 13:56 58.27405 21.78356 35000 ft 504 kts 75°
2026-05-06 13:56 58.29590 21.91017 35032 ft 505 kts 75°
2026-05-06 13:57 58.31769 22.03733 35016 ft 506 kts 75°
2026-05-06 13:57 58.33927 22.16418 35010 ft 507 kts 75°
2026-05-06 13:58 58.36084 22.29188 34990 ft 507 kts 75°
2026-05-06 13:58 58.38236 22.42016 35000 ft 507 kts 75°
2026-05-06 13:59 58.40366 22.54846 35011 ft 507 kts 75°
2026-05-06 13:59 58.42473 22.67601 35020 ft 507 kts 75°
2026-05-06 14:00 58.44584 22.80459 35033 ft 508 kts 75°
2026-05-06 14:00 58.46687 22.93379 35009 ft 510 kts 76°
2026-05-06 14:01 58.48789 23.06365 34974 ft 511 kts 75°
2026-05-06 14:01 58.50879 23.19360 34984 ft 512 kts 75°
2026-05-06 14:02 58.52954 23.32404 34994 ft 512 kts 76°
2026-05-06 14:02 58.55015 23.45457 35003 ft 512 kts 76°
2026-05-06 14:03 58.57064 23.58527 35010 ft 512 kts 76°
2026-05-06 14:03 58.59108 23.71645 35004 ft 514 kts 76°
2026-05-06 14:04 58.61126 23.84720 34970 ft 515 kts 76°
2026-05-06 14:04 58.63164 23.98020 34972 ft 517 kts 76°
2026-05-06 14:05 58.65181 24.11272 34978 ft 517 kts 76°
2026-05-06 14:05 58.67180 24.24487 34986 ft 518 kts 76°
2026-05-06 14:06 58.69174 24.37791 34996 ft 518 kts 76°
2026-05-06 14:06 58.71145 24.51120 35025 ft 519 kts 76°
2026-05-06 14:07 58.73124 24.64488 35010 ft 520 kts 75°
2026-05-06 14:07 58.75225 24.77900 34984 ft 520 kts 74°
2026-05-06 14:08 58.77340 24.91127 34994 ft 520 kts 74°
2026-05-06 14:08 58.79434 25.04511 35000 ft 521 kts 75°
2026-05-06 14:09 58.81479 25.17910 35007 ft 521 kts 75°
2026-05-06 14:09 58.83506 25.31320 35010 ft 521 kts 75°
2026-05-06 14:10 58.85531 25.44778 35026 ft 522 kts 75°
2026-05-06 14:10 58.87551 25.58247 35011 ft 522 kts 75°
2026-05-06 14:11 58.89559 25.71753 35009 ft 523 kts 75°
2026-05-06 14:11 58.91552 25.85280 35003 ft 523 kts 75°
2026-05-06 14:12 58.93534 25.98826 35009 ft 523 kts 75°
2026-05-06 14:12 58.95176 26.10110 35018 ft 523 kts 75°
2026-05-06 14:13 58.97134 26.23674 35017 ft 523 kts 76°
2026-05-06 14:13 58.99072 26.37278 34983 ft 523 kts 76°
2026-05-06 14:14 59.00992 26.50901 34999 ft 523 kts 76°
2026-05-06 14:14 59.02893 26.64455 35008 ft 523 kts 76°
2026-05-06 14:15 59.04792 26.78099 35014 ft 523 kts 76°
2026-05-06 14:15 59.06674 26.91777 34689 ft 523 kts 76°
2026-05-06 14:16 59.07611 26.98607 34450 ft 524 kts 76°
2026-05-06 14:16 59.08546 27.05452 34258 ft 525 kts 76°
2026-05-06 14:16 59.09478 27.12322 34018 ft 527 kts 76°
2026-05-06 14:16 59.10412 27.19231 33704 ft 528 kts 76°
2026-05-06 14:17 59.11343 27.26142 33428 ft 529 kts 76°
2026-05-06 14:17 59.12273 27.33077 33152 ft 529 kts 76°
2026-05-06 14:17 59.13198 27.40008 32859 ft 529 kts 77°
2026-05-06 14:17 59.14119 27.46966 31701 ft 535 kts 76°
2026-05-06 14:18 59.15054 27.54045 30354 ft 543 kts 76°
2026-05-06 14:18 59.15998 27.61200 28974 ft 547 kts 76°
2026-05-06 14:18 59.16928 27.68306 28483 ft 533 kts 76°
2026-05-06 14:18 59.17699 27.75300 27744 ft 525 kts 83°
2026-05-06 14:19 59.18197 27.82326 27044 ft 518 kts 84°
2026-05-06 14:19 59.18777 27.89242 26353 ft 514 kts 78°
2026-05-06 14:19 59.19747 27.95944 25713 ft 510 kts 73°
2026-05-06 14:19 59.20778 28.02546 24957 ft 508 kts 73°
2026-05-06 14:20 59.21790 28.09039 24327 ft 504 kts 73°
2026-05-06 14:20 59.22803 28.15565 23660 ft 501 kts 73°
2026-05-06 14:20 59.23807 28.22060 22938 ft 497 kts 73°
2026-05-06 14:20 59.24809 28.28569 22329 ft 491 kts 73°
2026-05-06 14:21 59.25772 28.34843 21736 ft 486 kts 73°
2026-05-06 14:21 59.26732 28.41138 21183 ft 480 kts 73°
2026-05-06 14:21 59.27674 28.47349 20631 ft 475 kts 73°
2026-05-06 14:21 59.28628 28.53512 20098 ft 470 kts 72°
2026-05-06 14:22 59.29634 28.59560 19566 ft 465 kts 71°
2026-05-06 14:22 59.30674 28.65523 19040 ft 461 kts 70°
2026-05-06 14:22 59.31725 28.71431 18504 ft 458 kts 70°
2026-05-06 14:22 59.32770 28.77312 17932 ft 455 kts 70°
2026-05-06 14:23 59.33792 28.83156 17347 ft 452 kts 70°
2026-05-06 14:23 59.34789 28.88962 16788 ft 448 kts 70°
2026-05-06 14:23 59.35768 28.94739 16187 ft 445 kts 71°
2026-05-06 14:23 59.36731 29.00490 15642 ft 441 kts 71°
2026-05-06 14:24 59.37680 29.06187 15049 ft 438 kts 71°
2026-05-06 14:24 59.38620 29.11844 14546 ft 434 kts 71°
2026-05-06 14:24 59.39550 29.17452 13937 ft 432 kts 71°
2026-05-06 14:24 59.40469 29.23008 13493 ft 424 kts 71°
2026-05-06 14:25 59.41373 29.28482 12890 ft 419 kts 71°
2026-05-06 14:25 59.42267 29.33891 12340 ft 414 kts 71°
2026-05-06 14:25 59.43148 29.39205 11598 ft 403 kts 71°
2026-05-06 14:25 59.44006 29.44392 10703 ft 398 kts 71°
2026-05-06 14:26 59.44847 29.49496 10489 ft 383 kts 71°
2026-05-06 14:26 59.45638 29.54327 10354 ft 367 kts 71°
2026-05-06 14:26 59.46400 29.59009 10251 ft 352 kts 70°
2026-05-06 14:26 59.47127 29.63512 10127 ft 339 kts 70°
2026-05-06 14:27 59.47826 29.67860 10000 ft 327 kts 70°
2026-05-06 14:27 59.48500 29.72043 9862 ft 316 kts 70°
2026-05-06 14:27 59.49161 29.76133 9534 ft 312 kts 70°
2026-05-06 14:27 59.49817 29.80187 9155 ft 309 kts 70°
2026-05-06 14:28 59.50462 29.84187 8789 ft 305 kts 70°
2026-05-06 14:28 59.51098 29.88157 8424 ft 302 kts 71°
2026-05-06 14:28 59.51724 29.92082 8026 ft 299 kts 71°
2026-05-06 14:28 59.52345 29.95981 7645 ft 297 kts 71°
2026-05-06 14:29 59.52960 29.99830 7282 ft 293 kts 71°
2026-05-06 14:29 59.53634 30.03592 6927 ft 289 kts 68°
2026-05-06 14:29 59.54368 30.07240 6617 ft 284 kts 66°
2026-05-06 14:29 59.55105 30.10764 6425 ft 280 kts 66°
2026-05-06 14:30 59.55849 30.14295 6225 ft 278 kts 66°
2026-05-06 14:30 59.56586 30.17811 6034 ft 277 kts 66°
2026-05-06 14:30 59.57314 30.21328 5846 ft 277 kts 66°
2026-05-06 14:30 59.58032 30.24835 5657 ft 275 kts 66°
2026-05-06 14:31 59.58743 30.28334 5475 ft 274 kts 66°
2026-05-06 14:31 59.59447 30.31824 5290 ft 273 kts 66°
2026-05-06 14:31 59.60148 30.35311 5092 ft 273 kts 66°
2026-05-06 14:31 59.60846 30.38790 4910 ft 272 kts 66°
2026-05-06 14:32 59.61542 30.42259 4727 ft 272 kts 66°
2026-05-06 14:32 59.62236 30.45728 4523 ft 271 kts 66°
2026-05-06 14:32 59.62925 30.49190 4354 ft 270 kts 66°
2026-05-06 14:32 59.63606 30.52639 4167 ft 269 kts 68°
2026-05-06 14:33 59.63850 30.56299 3977 ft 272 kts 96°
2026-05-06 14:33 59.63451 30.59916 3798 ft 265 kts 104°
2026-05-06 14:33 59.62967 30.63356 3619 ft 255 kts 105°
2026-05-06 14:33 59.62486 30.66658 3429 ft 246 kts 105°
2026-05-06 14:34 59.62013 30.69850 3249 ft 238 kts 105°
2026-05-06 14:34 59.61558 30.72900 3050 ft 230 kts 105°
2026-05-06 14:34 59.61108 30.75903 2875 ft 226 kts 105°
2026-05-06 14:34 59.60656 30.78859 2692 ft 224 kts 105°
2026-05-06 14:35 59.60204 30.81801 2503 ft 224 kts 105°
2026-05-06 14:35 59.59745 30.84753 2324 ft 225 kts 105°
2026-05-06 14:35 59.59294 30.87689 2142 ft 222 kts 104°
2026-05-06 14:35 59.59124 30.90687 2036 ft 224 kts 79°
2026-05-06 14:36 59.59690 30.93519 1997 ft 223 kts 50°
2026-05-06 14:36 59.60860 30.95426 1997 ft 218 kts 20°
2026-05-06 14:36 59.62320 30.95989 2001 ft 214 kts 353°
2026-05-06 14:36 59.63719 30.95152 1995 ft 211 kts 327°
2026-05-06 14:37 59.64757 30.93147 2016 ft 211 kts 301°
2026-05-06 14:37 59.65458 30.90573 2266 ft 214 kts 298°
2026-05-06 14:37 59.66165 30.87998 2444 ft 215 kts 299°
2026-05-06 14:37 59.66866 30.85466 2482 ft 205 kts 300°
2026-05-06 14:38 59.67547 30.83005 2495 ft 202 kts 299°
2026-05-06 14:38 59.68197 30.80659 2498 ft 187 kts 299°
2026-05-06 14:38 59.68811 30.78433 2498 ft 181 kts 300°
2026-05-06 14:38 59.69409 30.76259 2498 ft 179 kts 300°
2026-05-06 14:39 59.70005 30.74090 2504 ft 179 kts 299°
2026-05-06 14:39 59.70593 30.71951 2498 ft 179 kts 299°
2026-05-06 14:39 59.71186 30.69784 2499 ft 178 kts 299°
2026-05-06 14:39 59.71775 30.67622 2496 ft 178 kts 299°
2026-05-06 14:40 59.72368 30.65451 2509 ft 174 kts 299°
2026-05-06 14:40 59.72913 30.63449 2522 ft 157 kts 299°
2026-05-06 14:40 59.73406 30.61631 2490 ft 143 kts 299°
2026-05-06 14:40 59.73864 30.59951 2485 ft 135 kts 299°
2026-05-06 14:41 59.74302 30.58307 2487 ft 134 kts 296°
2026-05-06 14:41 59.74658 30.56629 2491 ft 133 kts 292°
2026-05-06 14:41 59.74974 30.54894 2496 ft 134 kts 290°
2026-05-06 14:41 59.75266 30.53136 2501 ft 134 kts 289°
2026-05-06 14:42 59.75548 30.51366 2438 ft 135 kts 289°
2026-05-06 14:42 59.75820 30.49610 2308 ft 134 kts 289°
2026-05-06 14:42 59.76092 30.47834 2153 ft 134 kts 288°
2026-05-06 14:42 59.76359 30.46076 1972 ft 132 kts 287°
2026-05-06 14:43 59.76624 30.44325 1826 ft 133 kts 288°
2026-05-06 14:43 59.76890 30.42566 1649 ft 132 kts 289°
2026-05-06 14:43 59.77151 30.40830 1472 ft 131 kts 289°
2026-05-06 14:43 59.77409 30.39113 1275 ft 128 kts 289°
2026-05-06 14:44 59.77661 30.37437 1092 ft 129 kts 290°
2026-05-06 14:44 59.77919 30.35721 903 ft 130 kts 289°
2026-05-06 14:44 59.78178 30.33993 722 ft 132 kts 289°
2026-05-06 14:45 59.78706 30.30465 375 ft 131 kts 289°
2026-05-06 14:45 59.78964 30.28737 195 ft 130 kts 289°
2026-05-06 14:45 59.79213 30.27039 99 ft 120 kts 289°
2026-05-06 14:45 59.79417 30.25700 91 ft 77 kts 287°
2026-05-06 14:46 59.79550 30.24849 90 ft 57 kts 288°
2026-05-06 14:46 59.79645 30.24174 89 ft 47 kts 285°
2026-05-06 14:46 59.79728 30.23604 91 ft 38 kts 286°
2026-05-06 14:46 59.79832 30.23203 86 ft 30 kts 311°
2026-05-06 14:47 59.79924 30.23034 86 ft 16 kts 343°
2026-05-06 14:47 59.79972 30.23167 89 ft 14 kts 100°
2026-05-06 14:47 59.79944 30.23348 87 ft 13 kts 107°
2026-05-06 14:47 59.79919 30.23518 85 ft 14 kts 106°
2026-05-06 14:48 59.79889 30.23722 86 ft 17 kts 107°
2026-05-06 14:48 59.79849 30.23982 87 ft 22 kts 107°
2026-05-06 14:48 59.79803 30.24293 88 ft 25 kts 106°
2026-05-06 14:48 59.79751 30.24643 90 ft 28 kts 107°
2026-05-06 14:49 59.79700 30.24987 90 ft 25 kts 106°
2026-05-06 14:49 59.79650 30.25327 90 ft 27 kts 106°
2026-05-06 14:49 59.79597 30.25686 91 ft 26 kts 107°
2026-05-06 14:49 59.79543 30.26043 93 ft 28 kts 106°
2026-05-06 14:50 59.79531 30.26245 94 ft 10 kts 50°
2026-05-06 14:50 59.79597 30.26290 90 ft 12 kts 15°
2026-05-06 14:50 59.79688 30.26345 90 ft 15 kts 17°
2026-05-06 14:50 59.79797 30.26409 89 ft 18 kts 17°
2026-05-06 14:51 59.79911 30.26476 89 ft 16 kts 17°
2026-05-06 14:51 59.80025 30.26543 93 ft 17 kts 17°
2026-05-06 14:51 59.80121 30.26601 90 ft 11 kts 17°
2026-05-06 14:51 59.80172 30.26603 89 ft 5 kts 320°
2026-05-06 14:52 59.80184 30.26551 90 ft 2 kts 284°
2026-05-06 14:52 59.80187 30.26532 87 ft 1 kts 285°
2026-05-06 14:52 59.80188 30.26526 87 ft 0 kts 285°